This is the latest recevied weather packets stored in our database for station/object DB0TV-13. If no packets are shown the sender has not sent any weather packets the latest 10 day(s).
| Time | Temp. | Humidity | Pressure | Rain* | Wind** | Luminosity | Snow |
|---|---|---|---|---|---|---|---|
| 1777905620 | 16.67° C | 80% | 1012.7 hPa | 0 mm | - | 79 W/m² | - |
| 1777905020 | 17.22° C | 78% | 1012.7 hPa | 0 mm | - | 76 W/m² | - |
| 1777904420 | 17.22° C | 76% | 1012.7 hPa | 0 mm | - | 86 W/m² | - |
| 1777903820 | 17.22° C | 76% | 1012.6 hPa | 0 mm | - | 133 W/m² | - |
| 1777903220 | 17.78° C | 75% | 1012.5 hPa | 0 mm | - | 195 W/m² | - |
| 1777902620 | 17.78° C | 74% | 1012.5 hPa | 0 mm | - | 213 W/m² | - |
| 1777902020 | 17.78° C | 74% | 1012.6 hPa | 0 mm | - | 261 W/m² | - |
| 1777901420 | 18.33° C | 73% | 1012.6 hPa | 0 mm | - | 253 W/m² | - |
| 1777900820 | 18.33° C | 71% | 1012.8 hPa | 0 mm | - | 295 W/m² | - |
| 1777900220 | 18.33° C | 69% | 1012.8 hPa | 0 mm | - | 243 W/m² | - |
| 1777899619 | 18.33° C | 69% | 1012.9 hPa | 0 mm | - | 276 W/m² | - |
| 1777899020 | 18.89° C | 69% | 1012.9 hPa | 0 mm | - | 240 W/m² | - |
| 1777898420 | 18.33° C | 68% | 1012.9 hPa | 0 mm | - | 279 W/m² | - |
| 1777897820 | 18.89° C | 67% | 1013 hPa | 0 mm | - | 283 W/m² | - |
| 1777897219 | 18.89° C | 68% | 1013 hPa | 0 mm | - | 399 W/m² | - |
| 1777896620 | 18.33° C | 68% | 1013 hPa | 0 mm | - | 377 W/m² | - |
| 1777896020 | 18.33° C | 67% | 1012.9 hPa | 0 mm | - | 324 W/m² | - |
| 1777895420 | 18.33° C | 67% | 1013.1 hPa | 0 mm | - | 366 W/m² | - |
| 1777894819 | 18.89° C | 67% | 1013.1 hPa | 0 mm | - | 383 W/m² | - |
| 1777894220 | 18.89° C | 67% | 1013.2 hPa | 0 mm | - | 340 W/m² | - |
| 1777893620 | 18.89° C | 67% | 1013.1 hPa | 0 mm | - | 396 W/m² | - |
| 1777893019 | 18.89° C | 65% | 1013.1 hPa | 0 mm | - | 427 W/m² | - |
| 1777892419 | 18.89° C | 65% | 1013.2 hPa | 0 mm | - | 500 W/m² | - |
| 1777891819 | 18.89° C | 67% | 1013.3 hPa | 0 mm | - | 509 W/m² | - |
| 1777891219 | 18.33° C | 68% | 1013.2 hPa | 0 mm | - | 479 W/m² | - |
* Rain latest hour (hover to see other rain measurements)
** Current wind speed in m/s (hover to see current wind gust speed)